Weather History for Conroe, TX

Change the Weather History Date:

Thursday, November 29, 2012

  Actual Average Record
Temperature  
Mean Temperature 50 °F -  
Max Temperature 68 °F 65 °F 80 °F (1998)
Min Temperature 32 °F 43 °F 30 °F (2002)
Degree Days  
Heating Degree Days 15    
Moisture  
Dew Point 42 °F    
Average Humidity 88    
Maximum Humidity 100    
Minimum Humidity 56    
Precipitation  
Precipitation 0.00 in - - ()
Sea Level Pressure  
Sea Level Pressure 30.26 in    
Wind  
Wind Speed 1 mph (SE)    
Max Wind Speed 9 mph    
Max Gust Speed -    
Visibility 6 miles    
Events      
Averages and records for this station are not official NWS values.
T = Trace of Precipitation, MM = Missing Value Source: NWS Daily Summary

Daily Weather History Graph

Daily Weather History Graph

Search for Another Location

Airport:

Trip Planner

Search our weather history database for the weather conditions in past years. The results will help you decide how hot, cold, wet, or windy it might be!

Date:

Astronomy

Nov. 29, 2012 Rise Set
Actual Time 6:59 AM CST 5:20 PM CST
Civil Twilight 6:33 AM CST 5:46 PM CST
Nautical Twilight 6:03 AM CST 6:16 PM CST
Astronomical Twilight 5:34 AM CST 6:45 PM CST
Moon 6:24 PM CST (11/29) 7:46 AM CST (11/29)
Length of Visible Light 11h 13m
Length of Day
10h 21m
Full, 99% of the Moon is Illuminated
Nov 29
Full
Dec 6
Last Quarter
Dec 13
New
Dec 19
First Quarter
Dec 28
Full

Hourly Weather History & Observations

Time (CST) Temp. Dew Point Humidity Pressure Visibility Wind Dir Wind Speed Gust Speed Precip Events Conditions
12:53 AM 35.1 °F 33.1 °F 92% 30.31 in 10.0 mi Calm Calm - N/A   Clear
1:30 AM 35.6 °F 33.8 °F 93% 30.31 in 2.5 mi Calm Calm - N/A   Partly Cloudy
1:37 AM 33.8 °F 33.8 °F 100% 30.31 in 1.5 mi Calm Calm - N/A   Mostly Cloudy
1:42 AM 33.8 °F 33.8 °F 100% 30.31 in 5.0 mi Calm Calm - N/A   Mostly Cloudy
1:53 AM 34.0 °F 33.1 °F 96% 30.31 in 5.0 mi Calm Calm - N/A   Overcast
2:15 AM 33.8 °F 33.8 °F 100% 30.31 in 1.8 mi Calm Calm - N/A   Overcast
2:25 AM 33.8 °F 33.8 °F 100% 30.31 in 1.5 mi Calm Calm - N/A   Overcast
2:29 AM 33.8 °F 33.8 °F 100% 30.31 in 3.0 mi Calm Calm - N/A   Overcast
2:36 AM 33.8 °F 33.8 °F 100% 30.31 in 1.5 mi Calm Calm - N/A   Overcast
2:47 AM 33.8 °F 33.8 °F 100% 30.30 in 3.0 mi Calm Calm - N/A   Mostly Cloudy
2:53 AM 32.0 °F 32.0 °F 100% 30.30 in 4.0 mi Calm Calm - N/A   Mostly Cloudy
3:53 AM 33.1 °F 32.0 °F 96% 30.29 in 6.0 mi Calm Calm - N/A   Clear
4:28 AM 32.0 °F 30.2 °F 93% 30.29 in 7.0 mi Calm Calm - N/A   Partly Cloudy
4:53 AM 32.0 °F 30.9 °F 96% 30.29 in 5.0 mi Calm Calm - N/A   Partly Cloudy
5:53 AM 32.0 °F 30.9 °F 96% 30.29 in 6.0 mi Calm Calm - N/A   Clear
6:53 AM 32.0 °F 32.0 °F 100% 30.29 in 6.0 mi Calm Calm - N/A   Clear
7:53 AM 36.0 °F 35.1 °F 97% 30.30 in 6.0 mi Calm Calm - N/A   Clear
8:53 AM 48.9 °F 44.1 °F 83% 30.31 in 10.0 mi East 4.6 mph - N/A   Clear
9:53 AM 57.0 °F 48.0 °F 72% 30.32 in 10.0 mi Calm Calm - N/A   Clear
10:53 AM 61.0 °F 48.9 °F 64% 30.30 in 10.0 mi South 4.6 mph - N/A   Clear
11:53 AM 64.0 °F 50.0 °F 60% 30.27 in 10.0 mi East 5.8 mph - N/A   Clear
12:53 PM 66.0 °F 51.1 °F 59% 30.24 in 10.0 mi ESE 4.6 mph - N/A   Clear
1:53 PM 66.0 °F 52.0 °F 60% 30.21 in 10.0 mi Variable 5.8 mph - N/A   Clear
2:53 PM 66.9 °F 53.1 °F 61% 30.19 in 10.0 mi SSE 5.8 mph - N/A   Partly Cloudy
3:53 PM 68.0 °F 52.0 °F 56% 30.17 in 10.0 mi SSE 9.2 mph - N/A   Partly Cloudy
4:53 PM 64.0 °F 53.1 °F 67% 30.19 in 10.0 mi SE 3.5 mph - N/A   Partly Cloudy
5:53 PM 59.0 °F 53.1 °F 81% 30.18 in 10.0 mi ESE 3.5 mph - N/A   Clear
6:53 PM 55.9 °F 52.0 °F 87% 30.20 in 10.0 mi ESE 3.5 mph - N/A   Clear
7:53 PM 52.0 °F 50.0 °F 93% 30.22 in 10.0 mi Calm Calm - N/A   Clear
8:53 PM 53.1 °F 51.1 °F 93% 30.21 in 10.0 mi Calm Calm - N/A   Clear
9:53 PM 51.1 °F 51.1 °F 100% 30.22 in 7.0 mi Calm Calm - N/A   Clear
10:53 PM 52.0 °F 52.0 °F 100% 30.21 in 5.0 mi SE 3.5 mph - N/A   Clear
11:53 PM 51.1 °F 50.0 °F 96% 30.21 in 2.5 mi Calm Calm - N/A   Mostly Cloudy
11:58 PM 51.8 °F 51.8 °F 100% 30.21 in 3.0 mi Calm Calm - N/A   Mostly Cloudy